Find Starlink 31868

NORAD ID: 59783 Int'l Des: 2024-093 Owner: SPXS Country: US Constellation: starlink operational
LEOCIRCULAR

Current View

Loading 3D Globe...

About Starlink 31868

Starlink 31868 (NORAD 59783) is a starlink constellation satellite (v2 mini) launched May 18, 2024 by SPXS of US. It operates in LEO, CIRCULAR orbit with a mass of 730.00 kg.

Upcoming Passes

Passes for default location (London). Set your location on the main map for personalized predictions.

Altitude History

Loading altitude history...

Two-Line Element Set

1 59783U 24093B 26236.35285845 .00000941 00000-0 43733-4 0 9997
2 59783 43.0040 338.7991 0001801 270.9283 89.1362 15.27582302128371
Epoch: Aug 24, 2026 • Age: 18 hours

Current Status

Altitude 492.7 km
Apogee / Perigee N/A
Velocity 7.62 km/s
Sub-Earth Point -36.53°S, 168.4°W
Launch Date May 18, 2024
Age 2.2 years
Type internet

Technical Details

Classification Payload
Mass 730.00 kg
Dry Mass 700.00 kg
Total Mass 730.00 kg
Length 0.30 m
Diameter 4.10 m
Span 29.00 m
Shape Box + pan
Manufacturer SPXS
Bus Type Starlink V2M
Phase Status In Orbit
Owner/State SPXS/US

Most Searched